GW2492 Weather Reports


Display with metric or nautical units.
time (UTC)temp
F
wind
direction
speed
MPH
gust
MPH
rain 1hr
in
rain 24hr
in
rain mn
in
humidity
%
barometer
mb
20260505203042 90 254 9.0 19.0 0.00 0.00 0.00 29 1007.2
20260505201549 90 254 5.0 18.0 0.00 0.00 0.00 34 1007.2
20260505200048 90 273 6.0 15.0 0.00 0.00 0.00 35 1007.4
20260505194547 89 261 11.0 16.0 0.00 0.00 0.00 33 1007.5
20260505193057 89 279 10.0 19.0 0.00 0.00 0.00 33 1007.5
20260505191544 88 276 7.0 17.0 0.00 0.00 0.00 39 1007.7
20260505190043 88 312 11.0 18.0 0.00 0.00 0.00 36 1007.9
20260505184548 87 286 10.0 16.0 0.00 0.00 0.00 41 1008.0
20260505183047 87 265 6.0 17.0 0.00 0.00 0.00 48 1008.1
20260505181554 85 281 14.0 21.0 0.00 0.00 0.00 49 1008.2
20260505180041 84 254 15.0 23.0 0.00 0.00 0.00 51 1008.3
20260505174548 84 270 9.0 21.0 0.00 0.00 0.00 52 1008.4
20260505173044 83 257 10.0 21.0 0.00 0.00 0.00 54 1008.6
20260505171543 82 277 12.0 20.0 0.00 0.00 0.00 57 1008.6
20260505170042 81 233 14.0 17.0 0.00 0.00 0.00 62 1008.7
20260505164550 79 232 13.0 19.0 0.00 0.00 0.00 66 1008.7
20260505163045 78 229 14.0 21.0 0.00 0.00 0.00 68 1008.6
20260505161546 77 227 15.0 21.0 0.00 0.00 0.00 72 1008.5
20260505153045 75 223 14.0 20.0 0.00 0.00 0.00 77 1008.5
20260505151545 74 228 15.0 22.0 0.00 0.00 0.00 77 1008.3
20260505124549 68 204 20.0 26.0 0.00 0.00 0.00 87 1007.4
20260505123042 67 221 18.0 24.0 0.00 0.00 0.00 87 1007.3
20260505121543 67 215 17.0 24.0 0.00 0.00 0.00 87 1007.1
20260505120046 67 223 15.0 23.0 0.00 0.00 0.00 86 1007.1
20260505114549 67 221 16.0 24.0 0.00 0.00 0.00 86 1006.9
20260505113042 67 221 17.0 22.0 0.00 0.00 0.00 85 1006.7
20260505111546 68 234 17.0 24.0 0.00 0.00 0.00 85 1006.7
20260505101550 69 229 16.0 23.0 0.00 0.00 0.00 82 1006.4
20260505100046 69 218 17.0 25.0 0.00 0.00 0.00 81 1006.3
20260505094601 69 219 18.0 25.0 0.00 0.00 0.00 81 1006.4
20260505093043 69 212 16.0 24.0 0.00 0.00 0.00 81 1006.2
20260505091545 69 217 16.0 24.0 0.00 0.00 0.00 81 1006.2
20260505090047 69 224 19.0 25.0 0.00 0.00 0.00 80 1006.6
20260505084553 69 205 17.0 24.0 0.00 0.00 0.00 80 1006.6
20260505083054 69 218 16.0 25.0 0.00 0.00 0.00 80 1006.5
20260505081555 69 221 17.0 27.0 0.00 0.00 0.00 80 1006.8
20260505080050 69 209 19.0 24.0 0.00 0.00 0.00 79 1006.8
20260505074545 70 211 19.0 25.0 0.00 0.00 0.00 79 1007.0
20260505073045 70 202 21.0 28.0 0.00 0.00 0.00 78 1007.1
20260505071550 70 206 21.0 28.0 0.00 0.00 0.00 78 1007.2
20260505070048 70 221 21.0 28.0 0.00 0.00 0.00 78 1007.3
20260505064549 70 199 21.0 28.0 0.00 0.00 0.00 77 1007.5
20260505063045 71 207 22.0 29.0 0.00 0.00 0.00 76 1007.8
20260505061553 71 205 21.0 28.0 0.00 0.00 0.00 76 1007.5
20260505060049 71 217 21.0 29.0 0.00 0.00 0.00 75 1007.7
20260505054554 72 200 22.0 30.0 0.00 0.00 0.00 75 1007.7
20260505053046 72 202 23.0 30.0 0.00 0.00 0.00 74 1007.8
20260505051541 72 186 19.0 30.0 0.00 0.00 0.00 73 1007.8
20260505041541 74 200 20.0 31.0 0.00 0.00 0.00 71 1007.6
20260505040045 74 203 20.0 28.0 0.00 0.00 0.00 70 1007.7
20260505034547 75 197 18.0 25.0 0.00 0.00 0.00 69 1007.5
20260505033045 75 203 17.0 27.0 0.00 0.00 0.00 68 1007.5
20260505031554 75 182 15.0 22.0 0.00 0.00 0.00 67 1007.5
20260505030046 76 191 16.0 22.0 0.00 0.00 0.00 65 1007.2
20260505024552 77 202 16.0 21.0 0.00 0.00 0.00 63 1007.3
20260505023048 77 198 13.0 18.0 0.00 0.00 0.00 63 1007.2
20260505021544 78 213 13.0 18.0 0.00 0.00 0.00 61 1007.2
20260505020043 79 207 15.0 23.0 0.00 0.00 0.00 58 1007.2
20260505014600 80 214 16.0 24.0 0.00 0.00 0.00 57 1007.0
20260505013048 80 207 13.0 20.0 0.00 0.00 0.00 56 1007.2
20260505011551 81 215 16.0 21.0 0.00 0.00 0.00 55 1007.0
20260505010045 82 216 11.0 19.0 0.00 0.00 0.00 54 1007.0
20260505004545 82 212 13.0 20.0 0.00 0.00 0.00 52 1007.0
20260505003042 83 224 16.0 23.0 0.00 0.00 0.00 51 1007.0
20260505001547 83 204 17.0 24.0 0.00 0.00 0.00 50 1007.1
20260505000052 84 225 19.0 25.0 0.00 0.00 0.00 47 1007.3
20260504234545 85 205 20.0 26.0 0.00 0.00 0.00 47 1007.3
20260504233044 85 211 22.0 26.0 0.00 0.00 0.00 46 1007.4
20260504231545 86 190 18.0 29.0 0.00 0.00 0.00 46 1007.3
20260504230049 86 217 20.0 27.0 0.00 0.00 0.00 45 1007.3
20260504224548 86 201 21.0 28.0 0.00 0.00 0.00 45 1007.4
20260504223047 86 198 20.0 27.0 0.00 0.00 0.00 46 1007.7
20260504221545 86 198 17.0 27.0 0.00 0.00 0.00 45 1007.7
20260504220042 87 215 18.0 26.0 0.00 0.00 0.00 44 1007.9
20260504214553 87 225 16.0 23.0 0.00 0.00 0.00 46 1007.9
20260504213046 87 223 15.0 24.0 0.00 0.00 0.00 46 1008.2
20260504211546 86 213 16.0 27.0 0.00 0.00 0.00 45 1008.5
20260504210058 86 223 16.0 24.0 0.00 0.00 0.00 45 1009.2
20260504204557 86 222 16.0 24.0 0.00 0.00 0.00 47 1009.0